| time (UTC) | temp F | wind direction | speed knots | gust knots | rain 1hr in | rain 24hr in | rain mn in | humidity % | barometer mb |
| 20260509064900 | 84 | 35 | 2.6 | 4.3 | 0.00 | 0.00 | 0.01 | 92 | |
| 20260509064400 | 84 | 38 | 2.6 | 2.6 | 0.00 | 0.00 | 0.01 | 92 | |
| 20260509063901 | 83 | 33 | 3.5 | 4.3 | 0.00 | 0.00 | 0.01 | 92 | |
| 20260509063401 | 82 | 302 | 3.5 | 5.2 | 0.00 | 0.00 | 0.01 | 92 | |
| 20260509062901 | 83 | 28 | 1.7 | 5.2 | 0.00 | 0.00 | 0.01 | 93 | |
| 20260509062401 | 86 | 7 | 3.5 | 5.2 | 0.00 | 0.00 | 0.01 | 92 | |
| 20260509061900 | 86 | 56 | 3.5 | 5.2 | 0.00 | 0.00 | 0.01 | 91 | |
| 20260509061401 | 87 | 110 | 1.7 | 1.7 | 0.00 | 0.00 | 0.01 | 90 | |
| 20260509060901 | 87 | 82 | 0.9 | 0.9 | 0.00 | 0.00 | 0.01 | 91 | |
| 20260509060400 | 87 | 132 | 2.6 | 4.3 | 0.00 | 0.00 | 0.01 | 90 | |
| 20260509055901 | 87 | 133 | 0.9 | 1.7 | 0.00 | 0.00 | 0.01 | 90 | |
| 20260509055401 | 87 | 83 | 2.6 | 2.6 | 0.00 | 0.00 | 0.01 | 90 | |
| 20260509054902 | 87 | 114 | 4.3 | 6.1 | 0.00 | 0.00 | 0.01 | 90 | |
| 20260509054400 | 86 | 36 | 3.5 | 5.2 | 0.00 | 0.00 | 0.01 | 91 | |
| 20260509053901 | 86 | 59 | 1.7 | 2.6 | 0.00 | 0.00 | 0.01 | 92 | |
| 20260509053400 | 86 | 102 | 4.3 | 6.1 | 0.00 | 0.00 | 0.01 | 93 | |
| 20260509052900 | 86 | 114 | 2.6 | 2.6 | 0.00 | 0.00 | 0.01 | 93 | |
| 20260509052400 | 86 | 105 | 4.3 | 5.2 | 0.00 | 0.00 | 0.01 | 92 | |
| 20260509051900 | 86 | 63 | 1.7 | 1.7 | 0.00 | 0.00 | 0.01 | 92 | |
| 20260509051400 | 86 | 103 | 2.6 | 4.3 | 0.00 | 0.00 | 0.01 | 92 | |
| 20260509050902 | 86 | 51 | 2.6 | 4.3 | 0.00 | 0.00 | 0.01 | 92 | |
| 20260509050400 | 86 | 71 | 0.0 | 0.9 | 0.00 | 0.00 | 0.01 | 93 | |
| 20260509045900 | 85 | 78 | 0.9 | 1.7 | 0.00 | 0.00 | 0.01 | 94 | |
| 20260509045400 | 84 | 58 | 2.6 | 2.6 | 0.00 | 0.00 | 0.01 | 94 | |
| 20260509044900 | 84 | 107 | 1.7 | 1.7 | 0.00 | 0.00 | 0.01 | 95 | |
| 20260509044400 | 84 | 67 | 0.9 | 0.9 | 0.00 | 0.00 | 0.01 | 95 | |
| 20260509043900 | 84 | 352 | 0.0 | 0.9 | 0.00 | 0.00 | 0.01 | 95 | |
| 20260509043400 | 83 | 111 | 0.9 | 0.9 | 0.00 | 0.00 | 0.01 | 96 | |
| 20260509042901 | 83 | 33 | 2.6 | 2.6 | 0.00 | 0.00 | 0.01 | 96 | |
| 20260509042401 | 83 | 35 | 2.6 | 4.3 | 0.00 | 0.00 | 0.01 | 96 | |
| 20260509041900 | 83 | 43 | 2.6 | 2.6 | 0.00 | 0.00 | 0.01 | 96 | |
| 20260509041401 | 82 | 92 | 2.6 | 4.3 | 0.00 | 0.00 | 0.01 | 97 | |
| 20260509040900 | 82 | 58 | 1.7 | 2.6 | 0.00 | 0.00 | 0.01 | 97 | |
| 20260509040401 | 82 | 70 | 0.0 | 0.0 | 0.00 | 0.00 | 0.01 | 97 | |
| 20260509035900 | 81 | 59 | 0.9 | 1.7 | 0.00 | 0.00 | 0.01 | 97 | |
| 20260509035400 | 81 | 56 | 1.7 | 1.7 | 0.00 | 0.00 | 0.01 | 97 | |
| 20260509034900 | 81 | 5 | 1.7 | 1.7 | 0.00 | 0.00 | 0.01 | 97 | |
| 20260509034400 | 81 | 33 | 2.6 | 4.3 | 0.00 | 0.00 | 0.01 | 97 | |
| 20260509033900 | 81 | 69 | 2.6 | 2.6 | 0.00 | 0.00 | 0.01 | 97 | |
| 20260509033400 | 81 | 96 | 0.0 | 0.9 | 0.00 | 0.00 | 0.01 | 97 | |
| 20260509032901 | 80 | 37 | 0.9 | 0.9 | 0.00 | 0.00 | 0.01 | 97 | |
| 20260509032400 | 81 | 56 | 1.7 | 2.6 | 0.00 | 0.00 | 0.01 | 97 | |
| 20260509031904 | 80 | 93 | 0.0 | 0.0 | 0.00 | 0.00 | 0.01 | 98 | |
| 20260509031400 | 80 | 64 | 0.0 | 0.9 | 0.00 | 0.00 | 0.01 | 98 | |
| 20260509030901 | 80 | 3 | 0.9 | 1.7 | 0.00 | 0.00 | 0.01 | 98 | |
| 20260509030400 | 80 | 29 | 1.7 | 1.7 | 0.00 | 0.00 | 0.01 | 98 | |
| 20260509025900 | 80 | 32 | 0.9 | 1.7 | 0.00 | 0.00 | 0.01 | 99 | |
| 20260509025400 | 80 | 16 | 0.9 | 2.6 | 0.00 | 0.00 | 0.01 | 99 | |
| 20260509024901 | 80 | 71 | 0.9 | 0.9 | 0.00 | 0.00 | 0.01 | 99 | |
| 20260509024401 | 79 | 74 | 1.7 | 1.7 | 0.00 | 0.00 | 0.01 | 99 | |
| 20260509023900 | 79 | 50 | 3.5 | 4.3 | 0.00 | 0.00 | 0.01 | 99 | |
| 20260509023406 | 80 | 50 | 0.9 | 1.7 | 0.00 | 0.00 | 0.01 | 99 | |
| 20260509022901 | 80 | 96 | 2.6 | 2.6 | 0.00 | 0.00 | 0.01 | 99 | |
| 20260509022400 | 81 | 351 | 4.3 | 5.2 | 0.00 | 0.00 | 0.01 | 99 | |
| 20260509021901 | 81 | 12 | 0.9 | 1.7 | 0.00 | 0.00 | 0.01 | 99 | |
| 20260509021401 | 81 | 51 | 1.7 | 1.7 | 0.00 | 0.00 | 0.01 | 99 | |
| 20260509020900 | 81 | 69 | 0.0 | 0.0 | 0.00 | 0.00 | 0.01 | 99 | |
| 20260509020400 | 81 | 62 | 1.7 | 1.7 | 0.00 | 0.00 | 0.01 | 99 | |
| 20260509015901 | 81 | 67 | 0.9 | 0.9 | 0.00 | 0.00 | 0.01 | 99 | |
| 20260509015400 | 81 | 350 | 2.6 | 4.3 | 0.00 | 0.00 | 0.01 | 99 | |
| 20260509014900 | 81 | 85 | 1.7 | 1.7 | 0.00 | 0.00 | 0.01 | 99 | |
| 20260509014401 | 81 | 13 | 2.6 | 2.6 | 0.00 | 0.00 | 0.01 | 99 | |
| 20260509013901 | 81 | 22 | 1.7 | 1.7 | 0.00 | 0.00 | 0.01 | 99 | |
| 20260509013401 | 81 | 31 | 3.5 | 4.3 | 0.00 | 0.00 | 0.01 | 99 | |
| 20260509012900 | 81 | 342 | 4.3 | 5.2 | 0.00 | 0.00 | 0.01 | 99 | |
| 20260509012401 | 81 | 19 | 0.9 | 1.7 | 0.00 | 0.00 | 0.01 | 99 | |
| 20260509011903 | 80 | 97 | 0.0 | 0.9 | 0.00 | 0.00 | 0.01 | 99 | |
| 20260509011402 | 80 | 43 | 1.7 | 2.6 | 0.00 | 0.00 | 0.01 | 99 | |
| 20260509010900 | 80 | 351 | 0.9 | 1.7 | 0.00 | 0.00 | 0.01 | 99 | |
| 20260509010400 | 80 | 33 | 0.9 | 1.7 | 0.00 | 0.00 | 0.01 | 99 | |
| 20260509005900 | 80 | 26 | 0.9 | 1.7 | 0.00 | 0.00 | 0.01 | 99 | |
| 20260509005400 | 80 | 32 | 1.7 | 1.7 | 0.00 | 0.00 | 0.01 | 99 | |
| 20260509004902 | 80 | 350 | 2.6 | 2.6 | 0.00 | 0.00 | 0.01 | 99 | |
| 20260509004400 | 80 | 9 | 0.9 | 1.7 | 0.00 | 0.00 | 0.01 | 99 | |
| 20260509003901 | 80 | 32 | 0.9 | 0.9 | 0.00 | 0.00 | 0.01 | 99 | |
| 20260509003400 | 80 | 4 | 1.7 | 1.7 | 0.00 | 0.00 | 0.01 | 99 | |
| 20260509002901 | 80 | 16 | 3.5 | 5.2 | 0.00 | 0.00 | 0.01 | 99 | |
| 20260508130900 | 84 | 106 | 3.5 | 6.1 | 0.00 | 0.00 | 0.00 | 90 | |
| 20260508130400 | 84 | 87 | 6.1 | 7.0 | 0.00 | 0.00 | 0.00 | 90 | |
| 20260508125901 | 84 | 79 | 2.6 | 4.3 | 0.00 | 0.00 | 0.00 | 91 | |
| 20260508125401 | 84 | 41 | 2.6 | 5.2 | 0.00 | 0.00 | 0.00 | 91 | |
| 20260508124901 | 84 | 64 | 0.0 | 0.9 | 0.00 | 0.00 | 0.00 | 91 | |
| 20260508124400 | 85 | 44 | 2.6 | 4.3 | 0.00 | 0.00 | 0.00 | 91 | |
| 20260508123900 | 85 | 54 | 3.5 | 4.3 | 0.00 | 0.00 | 0.00 | 90 | |
| 20260508123401 | 85 | 108 | 2.6 | 2.6 | 0.00 | 0.00 | 0.00 | 90 | |
| 20260508122900 | 85 | 104 | 2.6 | 4.3 | 0.00 | 0.00 | 0.00 | 89 | |
| 20260508122401 | 85 | 39 | 1.7 | 4.3 | 0.00 | 0.00 | 0.00 | 89 | |
| 20260508121900 | 85 | 121 | 3.5 | 5.2 | 0.00 | 0.00 | 0.00 | 88 | |
| 20260508121400 | 85 | 146 | 0.9 | 0.9 | 0.00 | 0.00 | 0.00 | 88 | |
| 20260508120901 | 85 | 133 | 2.6 | 4.3 | 0.00 | 0.00 | 0.00 | 87 | |
| 20260508120401 | 85 | 124 | 0.9 | 1.7 | 0.00 | 0.00 | 0.00 | 87 | |
| 20260508115900 | 86 | 122 | 2.6 | 4.3 | 0.00 | 0.00 | 0.00 | 86 | |
| 20260508115400 | 86 | 76 | 3.5 | 5.2 | 0.00 | 0.00 | 0.00 | 86 | |
| 20260508114900 | 86 | 74 | 3.5 | 5.2 | 0.00 | 0.00 | 0.00 | 86 | |
| 20260508114400 | 86 | 348 | 2.6 | 6.1 | 0.00 | 0.00 | 0.00 | 86 | |
| 20260508113901 | 86 | 58 | 1.7 | 5.2 | 0.00 | 0.00 | 0.00 | 86 | |
| 20260508113401 | 86 | 106 | 5.2 | 7.8 | 0.00 | 0.00 | 0.00 | 86 | |
| 20260508112900 | 86 | 104 | 0.9 | 1.7 | 0.00 | 0.00 | 0.00 | 87 | |
| 20260508112401 | 86 | 94 | 3.5 | 4.3 | 0.00 | 0.00 | 0.00 | 87 | |
| 20260508111903 | 86 | 82 | 2.6 | 5.2 | 0.00 | 0.00 | 0.00 | 87 | |
| 20260508111401 | 86 | 90 | 1.7 | 1.7 | 0.00 | 0.00 | 0.00 | 87 | |
| 20260508110902 | 86 | 134 | 0.9 | 0.9 | 0.00 | 0.00 | 0.00 | 86 | |
| 20260508110400 | 87 | 81 | 0.9 | 0.9 | 0.00 | 0.00 | 0.00 | 86 | |
| 20260508105900 | 86 | 35 | 3.5 | 5.2 | 0.00 | 0.00 | 0.00 | 86 | |
| 20260508105400 | 87 | 35 | 3.5 | 5.2 | 0.00 | 0.00 | 0.00 | 85 | |
| 20260508104900 | 87 | 93 | 2.6 | 4.3 | 0.00 | 0.00 | 0.00 | 84 | |
| 20260508104400 | 87 | 146 | 2.6 | 2.6 | 0.00 | 0.00 | 0.00 | 83 | |
| 20260508103900 | 88 | 149 | 3.5 | 6.1 | 0.00 | 0.00 | 0.00 | 80 | |
| 20260508103400 | 88 | 143 | 4.3 | 6.1 | 0.00 | 0.00 | 0.00 | 78 | |
| 20260508102900 | 88 | 99 | 6.1 | 7.8 | 0.00 | 0.00 | 0.00 | 77 | |
| 20260508102400 | 88 | 81 | 6.1 | 8.7 | 0.00 | 0.00 | 0.00 | 77 | |
| 20260508101901 | 88 | 82 | 0.0 | 0.9 | 0.00 | 0.00 | 0.00 | 78 | |
| 20260508101400 | 88 | 47 | 6.1 | 7.8 | 0.00 | 0.00 | 0.00 | 78 | |
| 20260508100900 | 88 | 52 | 0.9 | 0.9 | 0.00 | 0.00 | 0.00 | 78 | |
| 20260508100400 | 88 | 38 | 5.2 | 7.8 | 0.00 | 0.00 | 0.00 | 79 | |
| 20260508095900 | 88 | 138 | 1.7 | 1.7 | 0.00 | 0.00 | 0.00 | 79 | |
| 20260508095401 | 87 | 119 | 0.0 | 0.9 | 0.00 | 0.00 | 0.00 | 80 | |
| 20260508094901 | 87 | 51 | 3.5 | 4.3 | 0.00 | 0.00 | 0.00 | 82 | |
| 20260508094402 | 87 | 26 | 6.1 | 7.0 | 0.00 | 0.00 | 0.00 | 83 | |
| 20260508093902 | 87 | 137 | 3.5 | 5.2 | 0.00 | 0.00 | 0.00 | 84 | |
| 20260508093400 | 88 | 81 | 1.7 | 4.3 | 0.00 | 0.00 | 0.00 | 84 | |
| 20260508092900 | 87 | 40 | 4.3 | 6.1 | 0.00 | 0.00 | 0.00 | 84 | |
| 20260508092400 | 87 | 75 | 1.7 | 2.6 | 0.00 | 0.00 | 0.00 | 85 | |
| 20260508091901 | 87 | 120 | 1.7 | 2.6 | 0.00 | 0.00 | 0.00 | 85 | |
| 20260508091400 | 87 | 74 | 1.7 | 5.2 | 0.00 | 0.00 | 0.00 | 87 | |
| 20260508090900 | 87 | 54 | 6.1 | 7.8 | 0.00 | 0.00 | 0.00 | 86 | |
| 20260508090400 | 87 | 38 | 1.7 | 4.3 | 0.00 | 0.00 | 0.00 | 85 | |
| 20260508085900 | 87 | 81 | 3.5 | 5.2 | 0.00 | 0.00 | 0.00 | 84 | |
| 20260508085401 | 87 | 130 | 5.2 | 6.1 | 0.00 | 0.00 | 0.00 | 84 | |
| 20260508084900 | 87 | 127 | 1.7 | 4.3 | 0.00 | 0.00 | 0.00 | 85 | |
| 20260508084400 | 87 | 132 | 0.9 | 1.7 | 0.00 | 0.00 | 0.00 | 85 | |
| 20260508083900 | 86 | 68 | 1.7 | 1.7 | 0.00 | 0.00 | 0.00 | 85 | |
| 20260508083401 | 86 | 86 | 3.5 | 4.3 | 0.00 | 0.00 | 0.00 | 84 | |
| 20260508082900 | 86 | 67 | 4.3 | 6.1 | 0.00 | 0.00 | 0.00 | 85 | |
| 20260508082400 | 86 | 80 | 4.3 | 7.8 | 0.00 | 0.00 | 0.00 | 84 | |
| 20260508081900 | 86 | 107 | 2.6 | 4.3 | 0.00 | 0.00 | 0.00 | 84 | |
| 20260508081400 | 86 | 71 | 5.2 | 6.1 | 0.00 | 0.00 | 0.00 | 85 | |
| 20260508080900 | 86 | 68 | 5.2 | 7.8 | 0.00 | 0.00 | 0.00 | 86 | |
| 20260508080400 | 86 | 64 | 5.2 | 9.6 | 0.00 | 0.00 | 0.00 | 86 | |
| 20260508075900 | 86 | 127 | 2.6 | 5.2 | 0.00 | 0.00 | 0.00 | 87 | |
| 20260508075400 | 87 | 28 | 2.6 | 4.3 | 0.00 | 0.00 | 0.00 | 88 | |
| 20260508074901 | 87 | 102 | 2.6 | 2.6 | 0.00 | 0.00 | 0.00 | 87 | |
| 20260508074400 | 87 | 93 | 2.6 | 4.3 | 0.00 | 0.00 | 0.00 | 88 | |
| 20260508073901 | 86 | 105 | 3.5 | 5.2 | 0.00 | 0.00 | 0.00 | 88 | |
| 20260508073400 | 87 | 124 | 3.5 | 5.2 | 0.00 | 0.00 | 0.00 | 87 | |
| 20260508072900 | 87 | 112 | 3.5 | 5.2 | 0.00 | 0.00 | 0.00 | 87 | |
| 20260508072401 | 86 | 128 | 5.2 | 7.0 | 0.00 | 0.00 | 0.00 | 88 | |
| 20260508071901 | 87 | 106 | 2.6 | 2.6 | 0.00 | 0.00 | 0.00 | 88 | |
| 20260508071401 | 87 | 117 | 5.2 | 7.8 | 0.00 | 0.00 | 0.00 | 87 | |
| 20260508070900 | 87 | 168 | 7.8 | 11.3 | 0.00 | 0.00 | 0.00 | 87 | |
| 20260508070402 | 87 | 126 | 0.9 | 1.7 | 0.00 | 0.00 | 0.00 | 89 | |
| 20260508065900 | 87 | 155 | 2.6 | 5.2 | 0.00 | 0.00 | 0.00 | 88 | |
| 20260508065402 | 87 | 94 | 3.5 | 4.3 | 0.00 | 0.00 | 0.00 | 87 |